Tracking 35237 objects as of 6-Sep-2026
HD Live streaming from Space Station
objects crossing your sky now

COSMOS 1122 DEB


COSMOS 1122 DEB is no longer on orbit


NORAD ID: 11498
Int'l Code: 1979-075C
Launch date: August 17, 1979
Source: Commonwealth of Independent States (former USSR) (CIS)
Launch site: PLESETSK MISSILE AND SPACE COMPLEX (PKMTR)
Decay date: 1979-08-27

Note: This is SATELLITE DEBRIS
Your satellite tracking list
Your tracking list is empty




NASA's NSSDC Master Catalog

Two Line Element Set (TLE):
1 11498U 79075  C 79239.36082863  .05162731 +07939-6 +02621-5 0  9992
2 11498 081.3442 092.3990 0015651 307.3984 052.7659 16.43196487001634
Source of the keplerian elements: AFSPC